TimeAKDT,TemperatureF,Dew PointF,Humidity,Sea Level PressureIn,VisibilityMPH,Wind Direction,Wind SpeedMPH,Gust SpeedMPH,PrecipitationIn,Events,Conditions,WindDirDegrees,DateUTC
12:16 AM,37.4,32.0,81,29.81,10.0,North,9.2,-,N/A,,Clear,360,2013-09-08 08:16:00
12:36 AM,37.4,30.2,75,29.81,10.0,North,9.2,-,N/A,,Clear,350,2013-09-08 08:36:00
12:56 AM,37.4,30.2,75,29.80,10.0,East,8.1,-,N/A,,Clear,90,2013-09-08 08:56:00
1:16 AM,35.6,28.4,75,29.80,10.0,East,9.2,-,N/A,,Clear,90,2013-09-08 09:16:00
1:36 AM,33.8,28.4,81,29.80,10.0,East,5.8,-,N/A,,Clear,80,2013-09-08 09:36:00
1:56 AM,33.8,28.4,81,29.80,10.0,ENE,6.9,-,N/A,,Clear,70,2013-09-08 09:56:00
2:16 AM,33.8,30.2,87,29.79,10.0,East,8.1,-,N/A,,Clear,90,2013-09-08 10:16:00
2:36 AM,35.6,30.2,81,29.79,10.0,East,5.8,-,N/A,,Clear,90,2013-09-08 10:36:00
2:56 AM,33.8,30.2,87,29.79,10.0,East,5.8,-,N/A,,Clear,90,2013-09-08 10:56:00
3:16 AM,33.8,30.2,87,29.79,10.0,East,3.5,-,N/A,,Clear,80,2013-09-08 11:16:00
3:36 AM,35.6,30.2,81,29.78,10.0,Calm,Calm,-,N/A,,Clear,0,2013-09-08 11:36:00
3:56 AM,35.6,30.2,81,29.78,10.0,NE,5.8,-,N/A,,Clear,50,2013-09-08 11:56:00
4:16 AM,33.8,30.2,87,29.78,10.0,ENE,5.8,-,N/A,,Clear,70,2013-09-08 12:16:00
4:36 AM,33.8,30.2,87,29.77,10.0,East,3.5,-,N/A,,Clear,80,2013-09-08 12:36:00
4:56 AM,35.6,30.2,81,29.77,10.0,NNE,9.2,-,N/A,,Clear,20,2013-09-08 12:56:00
5:16 AM,37.4,32.0,81,29.77,10.0,NNE,10.4,-,N/A,,Mostly Cloudy,20,2013-09-08 13:16:00
5:36 AM,37.4,32.0,81,29.77,10.0,NNE,10.4,-,N/A,,Mostly Cloudy,30,2013-09-08 13:36:00
5:56 AM,37.4,32.0,81,29.76,10.0,NNE,10.4,-,N/A,,Overcast,20,2013-09-08 13:56:00
6:16 AM,37.4,32.0,81,29.76,10.0,North,12.7,-,N/A,,Overcast,10,2013-09-08 14:16:00
6:36 AM,37.4,32.0,81,29.76,10.0,NNE,9.2,-,N/A,,Overcast,20,2013-09-08 14:36:00
6:56 AM,37.4,32.0,81,29.76,10.0,North,11.5,-,N/A,,Overcast,360,2013-09-08 14:56:00
7:16 AM,39.2,32.0,75,29.75,10.0,NNE,11.5,-,N/A,,Overcast,20,2013-09-08 15:16:00
7:36 AM,39.2,33.8,81,29.75,10.0,NNE,6.9,-,N/A,,Overcast,20,2013-09-08 15:36:00
7:56 AM,39.2,33.8,81,29.75,10.0,North,9.2,-,N/A,,Overcast,10,2013-09-08 15:56:00
8:16 AM,39.2,33.8,81,29.75,10.0,NNE,9.2,-,N/A,,Overcast,20,2013-09-08 16:16:00
8:36 AM,39.2,33.8,81,29.75,10.0,NNE,9.2,-,N/A,,Overcast,30,2013-09-08 16:36:00
8:56 AM,39.2,33.8,81,29.74,10.0,NNE,10.4,-,N/A,,Overcast,30,2013-09-08 16:56:00
9:16 AM,39.2,33.8,81,29.74,10.0,NNE,9.2,16.1,N/A,,Overcast,20,2013-09-08 17:16:00
9:36 AM,39.2,33.8,81,29.74,10.0,NNE,11.5,-,N/A,,Overcast,20,2013-09-08 17:36:00
9:56 AM,39.2,33.8,81,29.74,10.0,North,10.4,-,N/A,,Overcast,350,2013-09-08 17:56:00
10:16 AM,39.2,33.8,81,29.74,10.0,NNE,9.2,-,N/A,,Overcast,30,2013-09-08 18:16:00
10:36 AM,41.0,33.8,76,29.74,10.0,NNE,8.1,-,N/A,,Overcast,20,2013-09-08 18:36:00
10:56 AM,41.0,33.8,76,29.74,10.0,North,8.1,-,N/A,,Overcast,10,2013-09-08 18:56:00
11:16 AM,39.2,33.8,81,29.74,10.0,North,8.1,-,N/A,,Overcast,10,2013-09-08 19:16:00
11:36 AM,39.2,33.8,81,29.74,10.0,NNE,8.1,-,N/A,,Overcast,20,2013-09-08 19:36:00
11:56 AM,41.0,33.8,76,29.74,10.0,NNE,10.4,-,N/A,,Overcast,20,2013-09-08 19:56:00
12:16 PM,39.2,33.8,81,29.73,10.0,North,8.1,-,N/A,,Overcast,10,2013-09-08 20:16:00
12:36 PM,41.0,33.8,76,29.73,10.0,North,9.2,-,N/A,,Overcast,360,2013-09-08 20:36:00
12:56 PM,41.0,33.8,76,29.73,10.0,NNE,9.2,-,N/A,,Overcast,20,2013-09-08 20:56:00
1:16 PM,39.2,33.8,81,29.73,10.0,North,5.8,-,N/A,,Overcast,10,2013-09-08 21:16:00
1:36 PM,39.2,33.8,81,29.73,10.0,North,3.5,-,N/A,,Overcast,350,2013-09-08 21:36:00
1:56 PM,41.0,33.8,76,29.73,10.0,Calm,Calm,-,N/A,,Overcast,0,2013-09-08 21:56:00
2:16 PM,41.0,33.8,76,29.73,10.0,North,5.8,-,N/A,,Overcast,10,2013-09-08 22:16:00
2:36 PM,39.2,33.8,81,29.73,10.0,Calm,Calm,-,N/A,,Overcast,0,2013-09-08 22:36:00
2:56 PM,41.0,33.8,76,29.73,10.0,Calm,Calm,-,N/A,,Overcast,0,2013-09-08 22:56:00
3:16 PM,39.2,33.8,81,29.73,10.0,NW,5.8,-,N/A,,Overcast,320,2013-09-08 23:16:00
3:36 PM,39.2,33.8,81,29.73,10.0,NNW,3.5,-,N/A,,Overcast,340,2013-09-08 23:36:00
3:56 PM,41.0,33.8,76,29.72,10.0,NW,8.1,-,N/A,,Overcast,310,2013-09-08 23:56:00
4:16 PM,41.0,33.8,76,29.73,10.0,NNW,6.9,-,N/A,,Overcast,340,2013-09-09 00:16:00
4:36 PM,41.0,35.6,81,29.73,10.0,NNW,6.9,-,N/A,,Overcast,340,2013-09-09 00:36:00
4:56 PM,41.0,33.8,76,29.72,10.0,North,8.1,-,N/A,,Overcast,360,2013-09-09 00:56:00
5:16 PM,41.0,35.6,81,29.72,10.0,NNW,8.1,-,N/A,,Overcast,330,2013-09-09 01:16:00
5:36 PM,41.0,33.8,76,29.72,10.0,North,8.1,-,N/A,,Overcast,10,2013-09-09 01:36:00
5:56 PM,41.0,35.6,81,29.72,10.0,NW,13.8,-,N/A,,Overcast,320,2013-09-09 01:56:00
6:16 PM,39.2,35.6,87,29.73,10.0,NNW,10.4,-,N/A,,Overcast,330,2013-09-09 02:16:00
6:56 PM,39.2,33.8,81,29.73,10.0,NW,11.5,-,N/A,,Overcast,310,2013-09-09 02:56:00
7:16 PM,39.2,33.8,81,29.73,10.0,NNW,10.4,-,N/A,,Overcast,330,2013-09-09 03:16:00
7:36 PM,37.4,33.8,87,29.73,10.0,NNW,5.8,-,N/A,,Overcast,340,2013-09-09 03:36:00
7:56 PM,37.4,33.8,87,29.73,10.0,NNW,6.9,-,N/A,,Overcast,330,2013-09-09 03:56:00
8:16 PM,39.2,35.6,87,29.73,9.0,North,4.6,-,N/A,,Overcast,10,2013-09-09 04:16:00
8:36 PM,39.2,35.6,87,29.73,9.0,NW,6.9,-,N/A,,Overcast,320,2013-09-09 04:36:00
8:56 PM,39.2,33.8,81,29.73,10.0,NNW,9.2,-,N/A,,Overcast,330,2013-09-09 04:56:00
9:16 PM,37.4,33.8,87,29.73,10.0,NW,10.4,-,N/A,,Overcast,320,2013-09-09 05:16:00
9:36 PM,37.4,33.8,87,29.74,10.0,NNW,10.4,-,N/A,,Overcast,330,2013-09-09 05:36:00
9:56 PM,37.4,33.8,87,29.74,10.0,NNW,5.8,-,N/A,,Overcast,330,2013-09-09 05:56:00
10:16 PM,37.4,33.8,87,29.74,10.0,North,8.1,-,N/A,,Overcast,360,2013-09-09 06:16:00
10:36 PM,37.4,33.8,87,29.74,10.0,NNW,6.9,-,N/A,,Overcast,340,2013-09-09 06:36:00
10:56 PM,37.4,33.8,87,29.74,10.0,North,6.9,-,N/A,,Overcast,350,2013-09-09 06:56:00
11:16 PM,37.4,33.8,87,29.74,10.0,NW,6.9,-,N/A,,Overcast,320,2013-09-09 07:16:00
11:36 PM,37.4,33.8,87,29.75,10.0,North,8.1,-,N/A,,Overcast,350,2013-09-09 07:36:00
11:56 PM,37.4,33.8,87,29.75,9.0,NNW,10.4,-,N/A,,Overcast,340,2013-09-09 07:56:00